White Mountain, AK

1:08 AM AKDT on May 25, 2017 (GMT -0800)
White Mountain | | Change Station

Elev 276 ft 64.69 °N, 163.41 °W | Updated 12 minutes ago

Overcast
Overcast
33 °F
Feels Like 26 °F
N
8
Wind Variable Wind from SSW

Today
High -- | Low -- °F
--% Chance of Precip.
Yesterday
High -- | Low -- °F
Precip. -- in
Pressure 29.68 in
Visibility 9.0 miles
Clouds Few 800 ft
Overcast 2400 ft
Windchill 26 °F
Dew Point 30 °F
Humidity 89%
Rainfall 0.00 in
Snow Depth Not available.
4:58 AM 0:45 AM
Waning Crescent, 0% visible
METAR PAWM 250856Z AUTO 21007KT 9SM FEW008 OVC024 01/M01 A2966 RMK AO2 RAE40 SLP049 P0000 60000 T00061011 400500006 51015 FZRANO
Pressure 29.68 in
Visibility 9.0 miles
Clouds Few 800 ft
Overcast 2400 ft
Windchill 26 °F
Dew Point 30 °F
Humidity 89%
Rainfall 0.00 in
Snow Depth Not available.
4:58 AM 0:45 AM
Waning Crescent, 0% visible
METAR PAWM 250856Z AUTO 21007KT 9SM FEW008 OVC024 01/M01 A2966 RMK AO2 RAE40 SLP049 P0000 60000 T00061011 400500006 51015 FZRANO

Get Severe Weather Alerts

Thanks for signing up!

Be on the lookout for a verification email in your inbox.

You'll start receiving the daily forecast at 6 AM.

×

10-Day Weather Forecast

Almanac

Astronomy

May. 25, 2017 Rise Set
Actual Time
Civil Twilight
Nautical Twilight
Astronomical Twilight
Moon
Length of Visible Light
Length of Day
Tomorrow will be .
, % of the Moon is Illuminated

Today's Extremes

State Highs State Lows

Community

WunderPhotos

Category 6

Welcome to Category 6. This is the collective home for Weather Underground's featured writeups by Dr. Jeff Masters (right), Bob Henson (left), Chris Burt, and other regular contributors.

Nearby

Air Quality

  Air Quality AQ Index Pollutant
Not available.

Snow Depth

Station Depth Elevation

Earthquake Activity

City Distance Mag. Time & Date
Minimum magnitude displayed is 2.5.

Coastal Water Temperatures

Place Temperature

Stations

Nearby Weather Stations

Station Location Temp. Windchill Dew Point Humidity Wind Precip. Elev Updated Type
                   

Watches & Warnings

There are currently no watches in effect.